Regional Weather Roundup
Issued by NWS Huntsville, AL

Home | Current Version | Previous Version | Text Only | Print | Product List | Glossary On
Versions: 1 2 3 4 5 6 7 8 9 10 11 12 13 14 15 16 17 18 19 20 21 22 23 24 25 26 27 28 29 30 31 32 33 34 35 36 37 38 39 40 41 42 43 44 45 46 47 48 49 50
000
ASUS44 KHUN 261324
RWRHUN

WEATHER ROUNDUP FOR THE TENNESSEE VALLEY
NATIONAL WEATHER SERVICE HUNTSVILLE AL
800 AM CDT SAT JUL 26 2014

ALZ001>004-261400-
NORTHWEST ALABAMA

CITY           SKY/WX    TMP DP  RH WIND       PRES   REMARKS
SHOALS AIRPORT SUNNY     71  65  81 CALM      30.07R
SHOALS TVA RES   N/A     66 N/A N/A MISG        N/A
$$

ALZ005>007-016-261400-
NORTH CENTRAL ALABAMA

CITY           SKY/WX    TMP DP  RH WIND       PRES   REMARKS
DECATUR AP     SUNNY     72  70  93 CALM      30.07R FOG
HUNTSVILLE AP  MOSUNNY   71  67  87 CALM      30.07R
HUN NWS/UAH      N/A     74  64  69 W1          N/A
MERIDIANVILLE  SUNNY     72  63  73 CALM      30.07R
VINEMONT AP    FAIR      71  66  82 CALM      30.10R
$$

ALZ008>010-261400-
NORTHEAST ALABAMA

CITY           SKY/WX    TMP DP  RH WIND       PRES   REMARKS
ALBERTVILLE    SUNNY     72  68  88 CALM      30.08R
CROSSVILLE       N/A     72 N/A N/A CALM        N/A
FORT PAYNE     SUNNY     68  63  83 CALM      30.07S
SCOTTSBORO AP  PTSUNNY   68  66  94 CALM      30.08S FOG
SCOTTSBORO HCN   N/A     66 N/A N/A MISG        N/A
VALLEY HEAD      N/A     64 N/A N/A MISG        N/A
$$

TNZ076-096-097-261400-
SOUTHEASTERN MIDDLE TENNESSEE

CITY           SKY/WX    TMP DP  RH WIND       PRES   REMARKS
FAYETTEVILLE   SUNNY     72  64  78 S9        30.07S
TULLAHOMA      SUNNY     72  66  83 SW5       30.08S
WINCHESTER     SUNNY     73  64  73 CALM      30.07S
$$

...SURROUNDING SITES...

CITY           SKY/WX    TMP DP  RH WIND       PRES   REMARKS
ATLANTA        MOSUNNY   76  67  73 NW3       30.07R
ANNISTON       MOSUNNY   72  67  84 CALM      30.08R
BIRMINGHAM     MOSUNNY   74  62  66 CALM      30.09R
CHATTANOOGA    MOSUNNY   71  64  78 CALM      30.07R
CORINTH        FAIR      72  66  83 S5        30.05S
DALTON         SUNNY     70  66  88 CALM      30.07S
GADSDEN        SUNNY     70  64  83 CALM      30.07R
GOLDEN TRNGL   MOSUNNY   73  66  78 CALM      30.07R
HALEYVILLE     FAIR      70  66  86 CALM      30.11R
JACKSON TN     SUNNY     73  67  81 SW7       30.02R
LEWISBURG      FAIR      72  65  78 CALM      30.04S
MEMPHIS        MOSUNNY   76  68  76 SW8       30.03R
MURFREESBORO   FAIR      72  64  75 SW3       30.04R
NASHVILLE      MOSUNNY   72  65  78 S3        30.04R
OXFORD MS      FAIR      73  66  78 SW3       30.07S
ROME           SUNNY     71  67  87 CALM      30.06R
SAVANNAH       SUNNY     72  72 100 S3        30.05S
TUPELO         SUNNY     72  67  84 SW3       30.06R
TUSCALOOSA     SUNNY     73  68  84 CALM      30.06R
$$

...GULF COAST WEATHER...

CITY           SKY/WX    TMP DP  RH WIND       PRES   REMARKS
GULFPORT       SUNNY     83  77  82 W6        30.06R HX  92
PASCAGOULA     SUNNY     80  77  90 W3        30.06R
MOBILE         MOSUNNY   77  77 100 SW3       30.08R
GULF SHORES    MOSUNNY   83  77  81 W8        30.07R HX  93
PENSACOLA      MOSUNNY   82  79  90 W3        30.06R HX  92
DESTIN         MOSUNNY   84  78  82 SW6       30.06R HX  95
PANAMA CITY    PTSUNNY   85  78  79 W13       30.07R HX  95
APPALACHICOLA  SUNNY     83  77  82 W5        30.08R HX  92
$$



USA.gov is the U.S. government's official web portal to all federal, state and local government web resources and services.